Weather History for Woodward, OK

Change the Weather History Date:

Friday, January 17, 2014

  Actual Average (KGAG) Record (KGAG)
Temperature  
Mean Temperature 42 °F -  
Max Temperature 55 °F 47 °F 77 °F (1950)
Min Temperature 30 °F 21 °F -2 °F (1978)
Degree Days  
Heating Degree Days 22    
Moisture  
Dew Point 13 °F    
Average Humidity 35    
Maximum Humidity 48    
Minimum Humidity 20    
Precipitation  
Precipitation 0.00 in - - ()
Sea Level Pressure  
Sea Level Pressure 30.22 in    
Wind  
Wind Speed 9 mph (WSW)    
Max Wind Speed 14 mph    
Max Gust Speed 20 mph    
Visibility 10 miles    
Events      
Averages and records for this station are not official NWS values.
T = Trace of Precipitation, MM = Missing Value Source: NWS Daily Summary

Daily Weather History Graph

Daily Weather History Graph

Search for Another Location

Airport:

Trip Planner

Search our weather history database for the weather conditions in past years. The results will help you decide how hot, cold, wet, or windy it might be!

Date:

Astronomy

Jan. 17, 2014 Rise Set
Actual Time 7:48 AM CST 5:48 PM CST
Civil Twilight 7:20 AM CST 6:16 PM CST
Nautical Twilight 6:48 AM CST 6:48 PM CST
Astronomical Twilight 6:17 AM CST 7:18 PM CST
Moon 7:32 PM CST (1/17) 8:20 AM CST (1/17)
Length of Visible Light 10h 56m
Length of Day
10h 00m
Full, 98% of the Moon is Illuminated
Jan 17
Full
Jan 23
Last Quarter
Jan 30
New
Feb 6
First Quarter
Feb 14
Full

Hourly Weather History & Observations

Time (CST) Temp. Windchill Dew Point Humidity Pressure Visibility Wind Dir Wind Speed Gust Speed Precip Events Conditions
12:15 AM 41.0 °F 34.3 °F 6.8 °F 24% 30.28 in 10.0 mi NNW 11.5 mph 18.4 mph N/A   Scattered Clouds
12:35 AM 37.4 °F 29.8 °F 8.6 °F 30% 30.29 in 10.0 mi NNW 11.5 mph - N/A   Scattered Clouds
12:55 AM 35.6 °F 29.2 °F 8.6 °F 33% 30.30 in 10.0 mi North 8.1 mph - N/A   Clear
1:15 AM 33.8 °F 26.4 °F 10.4 °F 38% 30.30 in 10.0 mi North 9.2 mph - N/A   Clear
1:35 AM 32.0 °F 24.8 °F 10.4 °F 41% 30.30 in 10.0 mi North 8.1 mph - N/A   Clear
1:55 AM 32.0 °F 26.4 °F 10.4 °F 41% 30.31 in 10.0 mi North 5.8 mph - N/A   Clear
2:15 AM 32.0 °F 27.5 °F 10.4 °F 41% 30.31 in 10.0 mi North 4.6 mph - N/A   Scattered Clouds
2:35 AM 32.0 °F 26.4 °F 12.2 °F 44% 30.31 in 10.0 mi North 5.8 mph - N/A   Scattered Clouds
2:55 AM 32.0 °F 24.2 °F 10.4 °F 41% 30.31 in 10.0 mi NNW 9.2 mph - N/A   Mostly Cloudy
3:15 AM 32.0 °F 27.5 °F 10.4 °F 41% 30.32 in 10.0 mi West 4.6 mph - N/A   Scattered Clouds
3:35 AM 32.0 °F 24.8 °F 12.2 °F 44% 30.32 in 10.0 mi West 8.1 mph - N/A   Mostly Cloudy
3:55 AM 32.0 °F 25.6 °F 10.4 °F 41% 30.32 in 10.0 mi NNW 6.9 mph - N/A   Overcast
4:15 AM 32.0 °F 25.6 °F 10.4 °F 41% 30.31 in 10.0 mi NNW 6.9 mph - N/A   Overcast
4:35 AM 32.0 °F 25.6 °F 12.2 °F 44% 30.31 in 10.0 mi NW 6.9 mph - N/A   Overcast
4:55 AM 30.2 °F 25.4 °F 10.4 °F 44% 30.31 in 10.0 mi WNW 4.6 mph - N/A   Mostly Cloudy
5:15 AM 32.0 °F 24.8 °F 12.2 °F 44% 30.31 in 10.0 mi NNW 8.1 mph - N/A   Overcast
5:35 AM 32.0 °F 25.6 °F 12.2 °F 44% 30.31 in 10.0 mi NNW 6.9 mph - N/A   Overcast
5:55 AM 32.0 °F 28.7 °F 14.0 °F 48% 30.31 in 10.0 mi WNW 3.5 mph - N/A   Overcast
6:15 AM 32.0 °F 26.4 °F 12.2 °F 44% 30.31 in 10.0 mi West 5.8 mph - N/A   Overcast
6:35 AM 30.2 °F 24.3 °F 12.2 °F 47% 30.30 in 10.0 mi West 5.8 mph - N/A   Overcast
6:55 AM 32.0 °F 26.4 °F 14.0 °F 48% 30.31 in 10.0 mi West 5.8 mph - N/A   Overcast
7:15 AM 32.0 °F 26.4 °F 14.0 °F 48% 30.31 in 10.0 mi WSW 5.8 mph - N/A   Overcast
7:35 AM 32.0 °F 26.4 °F 14.0 °F 48% 30.31 in 10.0 mi WSW 5.8 mph - N/A   Overcast
7:55 AM 32.0 °F 25.6 °F 14.0 °F 48% 30.31 in 10.0 mi WSW 6.9 mph - N/A   Overcast
8:15 AM 32.0 °F 26.4 °F 14.0 °F 48% 30.31 in 10.0 mi WSW 5.8 mph - N/A   Overcast
8:35 AM 32.0 °F 26.4 °F 14.0 °F 48% 30.32 in 10.0 mi WSW 5.8 mph - N/A   Overcast
8:55 AM 33.8 °F 27.7 °F 14.0 °F 44% 30.32 in 10.0 mi WNW 6.9 mph - N/A   Mostly Cloudy
9:15 AM 33.8 °F 28.6 °F 14.0 °F 44% 30.32 in 10.0 mi WNW 5.8 mph - N/A   Scattered Clouds
9:35 AM 35.6 °F 29.2 °F 12.2 °F 38% 30.32 in 10.0 mi NW 8.1 mph - N/A   Mostly Cloudy
9:55 AM 37.4 °F 30.8 °F 10.4 °F 33% 30.32 in 10.0 mi NW 9.2 mph - N/A   Mostly Cloudy
10:15 AM 41.0 °F 34.7 °F 8.6 °F 26% 30.32 in 10.0 mi NW 10.4 mph - N/A   Mostly Cloudy
10:35 AM 42.8 °F 36.6 °F 8.6 °F 25% 30.32 in 10.0 mi NW 11.5 mph - N/A   Scattered Clouds
10:55 AM 42.8 °F 36.6 °F 6.8 °F 23% 30.32 in 10.0 mi NW 11.5 mph - N/A   Scattered Clouds
11:15 AM 44.6 °F 39.7 °F 8.6 °F 23% 30.31 in 10.0 mi West 9.2 mph - N/A   Scattered Clouds
11:35 AM 42.8 °F 37.0 °F 8.6 °F 25% 30.30 in 10.0 mi WNW 10.4 mph - N/A   Mostly Cloudy
11:55 AM 44.6 °F 40.2 °F 8.6 °F 23% 30.29 in 10.0 mi WNW 8.1 mph - N/A   Overcast
12:15 PM 46.4 °F 42.9 °F 8.6 °F 22% 30.26 in 10.0 mi WNW 6.9 mph - N/A   Overcast
12:35 PM 46.4 °F 41.5 °F 10.4 °F 23% 30.24 in 10.0 mi WSW 10.4 mph - N/A   Scattered Clouds
12:55 PM 48.2 °F - 12.2 °F 24% 30.23 in 10.0 mi West 9.2 mph 18.4 mph N/A   Clear
1:15 PM 48.2 °F - 12.2 °F 24% 30.21 in 10.0 mi West 13.8 mph - N/A   Clear
1:35 PM 50.0 °F - 12.2 °F 22% 30.20 in 10.0 mi WSW 11.5 mph 17.3 mph N/A   Clear
1:55 PM 50.0 °F - 12.2 °F 22% 30.19 in 10.0 mi WSW 8.1 mph - N/A   Clear
2:15 PM 51.8 °F - 14.0 °F 22% 30.18 in 10.0 mi SW 9.2 mph - N/A   Clear
2:35 PM 51.8 °F - 14.0 °F 22% 30.17 in 10.0 mi SW 9.2 mph - N/A   Clear
2:55 PM 53.6 °F - 14.0 °F 21% 30.16 in 10.0 mi SW 11.5 mph - N/A   Clear
3:15 PM 53.6 °F - 14.0 °F 21% 30.16 in 10.0 mi WSW 11.5 mph - N/A   Clear
3:35 PM 55.4 °F - 14.0 °F 20% 30.15 in 10.0 mi WSW 13.8 mph 19.6 mph N/A   Clear
3:55 PM 55.4 °F - 15.8 °F 21% 30.14 in 10.0 mi WSW 13.8 mph - N/A   Clear
4:15 PM 53.6 °F - 14.0 °F 21% 30.13 in 10.0 mi SW 13.8 mph - N/A   Clear
4:35 PM 53.6 °F - 14.0 °F 21% 30.13 in 10.0 mi SW 11.5 mph - N/A   Clear
4:55 PM 53.6 °F - 14.0 °F 21% 30.12 in 10.0 mi SW 12.7 mph - N/A   Clear
5:15 PM 53.6 °F - 15.8 °F 22% 30.12 in 10.0 mi SW 10.4 mph 16.1 mph N/A   Scattered Clouds
5:35 PM 50.0 °F - 15.8 °F 26% 30.12 in 10.0 mi SSW 6.9 mph - N/A   Scattered Clouds
5:55 PM 46.4 °F 42.4 °F 15.8 °F 29% 30.11 in 10.0 mi SSW 8.1 mph - N/A   Scattered Clouds
6:15 PM 46.4 °F 42.4 °F 15.8 °F 29% 30.10 in 10.0 mi South 8.1 mph - N/A   Mostly Cloudy
6:35 PM 44.6 °F 40.2 °F 15.8 °F 31% 30.10 in 10.0 mi South 8.1 mph - N/A   Scattered Clouds
6:55 PM 42.8 °F 38.0 °F 17.6 °F 36% 30.10 in 10.0 mi South 8.1 mph - N/A   Scattered Clouds
7:15 PM 44.6 °F 39.7 °F 17.6 °F 34% 30.10 in 10.0 mi South 9.2 mph - N/A   Scattered Clouds
7:35 PM 42.8 °F 37.5 °F 17.6 °F 36% 30.09 in 10.0 mi South 9.2 mph - N/A   Clear
7:55 PM 42.8 °F 37.5 °F 17.6 °F 36% 30.09 in 10.0 mi South 9.2 mph - N/A   Clear
8:15 PM 44.6 °F 39.7 °F 17.6 °F 34% 30.09 in 10.0 mi SSW 9.2 mph - N/A   Clear
8:35 PM 41.0 °F 34.7 °F 17.6 °F 39% 30.08 in 10.0 mi SSW 10.4 mph - N/A   Clear
8:55 PM 42.8 °F 37.5 °F 17.6 °F 36% 30.08 in 10.0 mi SSW 9.2 mph - N/A   Clear
9:15 PM 41.0 °F 35.8 °F 17.6 °F 39% 30.08 in 10.0 mi SSW 8.1 mph - N/A   Clear
9:35 PM 41.0 °F 35.2 °F 17.6 °F 39% 30.07 in 10.0 mi SSW 9.2 mph - N/A   Clear
9:55 PM 39.2 °F 32.5 °F 17.6 °F 42% 30.07 in 10.0 mi SSW 10.4 mph - N/A   Clear
10:15 PM 37.4 °F 30.8 °F 17.6 °F 45% 30.07 in 10.0 mi SSW 9.2 mph - N/A   Clear
10:35 PM 37.4 °F 30.3 °F 17.6 °F 45% 30.07 in 10.0 mi SSW 10.4 mph - N/A   Clear
10:55 PM 37.4 °F 30.8 °F 17.6 °F 45% 30.07 in 10.0 mi SSW 9.2 mph - N/A   Clear
11:15 PM 37.4 °F 30.3 °F 17.6 °F 45% 30.07 in 10.0 mi SSW 10.4 mph - N/A   Clear
11:35 PM 37.4 °F 29.8 °F 15.8 °F 41% 30.05 in 10.0 mi SSW 11.5 mph - N/A   Clear
11:55 PM 37.4 °F 29.8 °F 15.8 °F 41% 30.05 in 10.0 mi SSW 11.5 mph - N/A   Clear